COSMOS 1275 DEB, 12670

Orbit data source: Space-Track

COSMOS 1275 DEB, 12670 is space debris in LEO originally from a launch on Thu, 04 Jun 1981 UTC launched from the Plesetsk Missile And Space Complex (PKMTR). Debris objects in space refer to the collection of defunct objects orbiting the Earth. Examples of debris include non-operational satellites, rocket bodies, and fragments generated from explosions, collisions, or faulty payload assembly.

Loading next visibility...
Identifier
12670, 1981-053AA
Orbit
LEO
Country
Flag of CISCIS
Related business
Manufacturer
Unknown
Mission
Spacecraft
Bus & Motor
Unknown
Mass
Unknown
Launch date (UTC)
1981-06-04 (45 years ago)
Launch vehicle
Unknown
Launch site
Plesetsk Missile And Space Complex (PKMTR)
Object type
Payload
Rocket body
Debris
Shape & HBR
Unknown shape, 0.4 m
Radar Cross Section
Medium (>0.1 m² and <1 m²)

Expand to show TLE details & history
Last TLE update: 4 hours ago

TLE from 4 hours ago
0 COSMOS 1275 DEB
1 12670U 81053AA  26035.84135898  .00000545  00000-0  49448-3 0  9991
2 12670  82.9423 303.6082 0057304  78.0353 354.2528 13.81028979235505
Epoch: 2026-02-04T20:11Z
TLE epoch observation values (Epoch: 2026-02-04T20:11:33.415Z)
Latitude
70.98662°
Longitude
-113.34207°
Altitude
930.657 km
Speed
7.414 km/s
True Right ascension
21h 38m 11s
True Declination
70° 52' 59"
Sunlit
Object was in daylight at epoch
Visualization orbit readout
Latitude
Unknown
Longitude
Unknown
Altitude
Unknown
Speed
Unknown
Apparent Right ascension
Unknown
Apparent Declination
Unknown
Sunlit
N/A
Visualization observer readout
Local Sidereal Time
01:43:58
Azimuth
Unknown
Elevation
Unknown
Doppler factor
Unknown
Orbital elements
Apogee altitude
999.415 km
Perigee altitude
915.344 km
Semi-major axis
7,335.517 km
Eccentricity
0.00573
Inclination
82.9423°
RAAN
303.6082°
Arg. of periapsis
78.0353°
True anomaly
354.18657°
Mean anomaly
354.2528°
Eccentric anomaly
354.21973°
Mean motion
3.45459 °/min
Orbital period
104.21 mins
BSTAR
0.00049448
Loading maneuver chart data...
Computing Atmospheric mass density...

Documentation

Showing up to 5 results
|